Wind_Speed
4 5 5 6 6 6 5 6 6 7 7 6 4 3 3 5 7 7 9 9 8 5 1 1 3 4 5 4 1 3 5 9 18 25 19 17 23 22 19 18 16 16 16 16 14 11 9 7 9 14 11 4 2 1 2 2 2 4 3 3 0 2 2 3 4 4 2 1 4 3 2 8 5 4 4 4 7 6 5 6 5 6 7 8 11 14 17 19
5 5 5 6 6 5 5 6 6 7 6 4 3 3 3 5 6 7 8 10 9 7 3 1 3 6 6 5 5 4 4 6 15 19 18 22 24 21 18 17 17 17 17 17 15 10 6 5 9 13 7 2 2 1 2 2 2 4 3 2 2 4 2 2 4 3 1 3 4 3 2 6 4 6 3 3 2 3 6 4 5 7 7 8 13 16 19 21
4 5 5 6 5 5 6 6 7 7 6 4 5 5 4 5 6 8 8 10 10 7 6 3 1 6 7 6 6 5 5 4 9 12 20 25 21 19 18 16 17 18 16 14 12 8 5 5 6 6 3 2 3 2 2 2 2 2 3 3 4 5 2 2 2 3 3 5 6 4 1 3 2 1 1 4 3 2 4 3 3 5 5 6 8 14 17 20
4 5 5 5 5 5 6 7 7 7 6 6 6 5 4 5 6 8 9 10 10 7 8 8 5 1 5 6 5 4 4 5 5 12 22 23 20 20 17 16 17 16 14 12 10 8 6 5 2 1 2 2 4 3 2 2 1 1 3 3 5 3 2 3 2 3 3 4 5 3 2 4 1 1 3 7 4 2 4 5 5 8 7 7 6 10 15 17
4 5 5 5 5 6 7 7 7 6 6 6 5 4 3 5 6 8 9 9 9 7 7 9 9 7 4 3 4 4 2 5 6 16 23 21 20 19 17 17 15 14 14 11 8 6 3 0 3 3 3 1 4 4 2 3 2 3 2 3 5 3 3 4 4 3 1 4 4 2 1 1 2 2 3 7 4 4 5 5 7 9 8 8 7 9 12 14
4 4 4 5 6 7 7 7 6 5 5 5 3 2 3 5 6 8 9 9 9 8 8 9 7 8 10 10 8 3 5 3 9 18 22 20 19 18 16 15 13 15 14 11 10 8 7 5 5 4 3 3 3 3 2 5 3 3 2 1 2 2 3 3 3 2 2 6 4 3 1 2 3 1 2 5 4 5 5 6 8 8 10 12 11 10 10 10
4 5 5 5 6 7 7 6 5 4 3 2 1 2 3 5 6 7 8 9 9 9 9 7 3 2 4 7 13 12 8 1 12 19 21 20 17 16 14 13 15 17 16 17 14 7 6 9 6 3 4 4 2 2 3 6 6 5 1 2 1 1 3 4 4 2 4 5 4 5 3 2 4 2 2 3 4 5 7 8 10 11 14 15 11 9 9 10
4 5 5 6 6 6 6 6 5 3 2 1 1 2 3 4 6 6 8 8 9 12 13 7 2 3 4 1 6 9 5 5 16 20 21 20 16 15 11 11 15 17 19 20 15 5 4 7 4 2 4 2 1 2 3 4 6 5 1 2 1 0 2 5 3 1 3 3 3 6 3 4 6 4 3 5 6 7 8 9 11 11 12 12 9 8 9 10
5 5 5 6 5 5 5 5 4 3 1 1 1 2 3 4 5 6 7 7 8 12 16 15 7 4 5 4 6 6 4 9 18 19 19 19 15 14 13 13 15 15 16 17 17 12 5 3 1 1 3 1 3 2 3 4 2 1 0 2 1 3 4 3 2 1 2 2 4 5 2 4 4 3 2 7 9 7 8 9 9 10 9 8 8 8 9 10
5 5 5 5 4 4 4 4 3 1 0 1 1 2 3 4 5 5 5 6 7 9 12 16 15 12 10 6 7 6 7 13 19 19 18 18 14 13 15 16 16 15 15 16 18 13 5 1 4 3 5 2 3 2 3 3 1 1 1 1 3 5 4 2 4 5 2 3 5 6 4 3 2 1 2 7 9 8 9 8 7 9 8 7 7 7 11 11
4 5 5 5 5 4 5 4 3 1 1 1 1 2 3 4 5 6 4 4 6 8 9 10 11 16 19 12 8 6 9 14 20 21 18 16 12 12 14 15 15 16 15 16 18 13 7 2 2 3 4 2 2 3 3 1 2 1 2 1 6 7 3 4 5 6 2 2 6 6 2 1 0 2 5 8 9 9 10 9 7 8 8 7 7 6 9 12
5 5 5 6 6 5 6 5 3 1 1 1 2 2 3 4 5 6 6 5 4 5 6 8 6 7 12 12 6 4 10 14 20 22 17 14 10 8 11 13 12 13 12 12 16 17 11 7 10 7 1 1 1 3 1 1 0 1 4 2 7 9 5 6 6 4 1 1 4 6 1 2 3 6 7 7 10 9 9 9 7 8 7 6 7 6 7 11
5 6 7 7 6 7 7 7 5 3 2 2 3 3 3 4 6 8 8 6 4 3 3 5 8 6 5 6 4 7 13 13 20 23 18 14 8 5 8 9 8 9 11 10 11 19 16 10 16 9 1 4 2 1 1 3 4 3 5 3 4 8 5 6 5 5 4 0 4 5 4 6 6 9 6 6 11 9 9 8 7 7 6 6 6 6 6 10
6 7 8 8 8 9 10 10 9 6 5 5 4 3 3 4 7 9 10 9 5 4 5 4 6 7 6 2 2 12 16 14 22 26 21 16 9 7 8 7 6 6 10 11 7 15 18 14 17 9 3 5 0 2 3 5 6 3 5 3 4 3 5 8 5 5 6 1 5 5 6 7 7 8 4 7 10 11 10 8 7 7 6 6 6 6 5 7
7 8 9 10 10 10 11 12 12 12 11 10 8 5 3 2 5 7 9 12 8 5 6 6 3 4 6 1 2 14 20 20 26 28 23 17 11 10 13 10 9 8 12 14 8 11 19 19 16 6 4 4 4 5 4 4 5 4 4 4 3 1 5 11 7 2 2 4 5 5 5 6 7 7 4 7 8 11 9 7 8 7 7 7 6 6 5 5
8 9 10 9 9 9 9 10 11 13 15 15 16 14 8 2 0 5 7 11 14 9 6 7 5 4 5 2 7 15 19 21 25 26 21 15 10 11 15 10 9 10 12 16 13 11 17 16 9 4 3 6 6 5 4 5 5 4 4 3 5 3 4 8 7 3 4 4 6 2 3 6 6 3 5 7 7 9 7 7 8 8 7 7 6 5 5 4
9 8 7 5 5 5 6 6 6 7 9 12 16 18 19 12 2 4 4 6 10 10 9 10 6 5 6 6 8 10 14 17 21 26 23 15 11 14 15 7 7 10 10 13 17 13 12 9 4 2 5 5 4 3 5 5 6 4 4 2 4 3 4 5 7 5 7 6 5 1 2 8 10 4 5 8 7 7 6 7 8 8 7 6 6 5 5 6
9 7 5 4 4 6 6 4 3 4 6 9 11 13 19 23 19 14 10 5 1 3 8 13 9 5 5 9 6 10 15 16 20 25 24 15 11 16 15 6 5 8 6 8 13 10 6 5 3 2 4 5 5 6 6 1 4 4 4 3 3 4 3 5 7 5 8 6 4 5 4 9 14 9 4 7 5 7 7 8 8 8 8 6 5 4 5 7
8 7 5 5 7 8 7 4 3 4 5 6 5 4 8 16 22 24 25 19 8 4 3 7 7 4 2 6 7 13 12 12 19 25 27 19 10 13 16 10 6 7 6 4 6 6 3 4 5 3 4 6 4 3 4 4 5 5 6 4 4 5 4 7 9 5 7 6 5 5 6 9 14 12 5 3 7 10 9 9 8 7 7 6 5 5 5 7
8 7 5 6 8 9 9 6 3 3 6 5 3 1 3 4 9 12 16 17 8 6 5 2 2 3 2 4 9 16 8 8 17 24 31 23 9 10 13 10 8 8 5 2 3 5 5 6 4 1 4 6 6 3 5 5 4 3 2 2 5 5 5 8 9 7 6 5 8 5 5 9 9 11 9 3 10 12 11 11 9 7 7 6 7 6 6 6
8 8 7 6 7 9 10 8 7 3 3 6 3 2 2 2 5 2 2 6 4 6 8 1 1 3 2 3 9 15 4 5 15 22 32 24 7 7 7 7 8 6 5 2 2 4 6 7 2 5 7 6 3 2 3 3 2 2 1 1 4 5 7 10 10 7 6 5 10 6 5 8 7 10 9 8 12 10 10 11 9 8 8 7 8 8 6 4
9 10 9 7 6 9 10 9 10 10 6 4 7 8 4 5 9 7 4 4 3 5 5 3 4 3 3 2 9 12 3 6 13 18 29 23 9 6 3 5 7 3 6 3 3 6 7 5 5 8 4 2 2 3 5 5 3 3 2 1 4 5 8 9 7 2 6 5 9 6 4 5 6 9 8 10 11 8 9 10 8 8 9 8 7 7 5 4
9 11 11 9 6 7 10 10 8 8 11 13 14 10 7 9 9 6 4 5 1 3 3 4 5 5 6 5 11 12 7 7 5 11 23 17 6 4 3 5 6 3 6 5 4 4 3 2 5 5 3 4 4 6 6 5 4 2 2 2 4 5 5 6 6 5 6 4 5 6 4 1 5 7 9 9 9 9 8 8 9 8 9 7 5 5 6 6
8 10 11 9 7 6 7 9 8 8 11 13 14 11 9 8 6 3 3 4 2 2 1 1 2 3 3 4 11 8 4 4 0 8 20 13 3 3 4 3 5 5 5 5 7 6 2 4 2 6 7 6 4 5 6 5 5 3 3 2 5 8 6 8 9 9 9 5 2 4 5 2 3 5 7 6 7 8 7 8 10 8 7 6 5 7 7 7
7 8 9 9 8 7 5 6 8 9 8 8 10 10 8 5 2 3 3 4 3 3 3 1 1 5 5 6 12 4 3 4 3 7 16 12 4 3 3 1 4 4 3 2 6 5 0 3 3 5 7 7 5 2 1 1 4 5 4 4 6 9 11 13 10 7 6 4 3 4 4 3 1 5 5 3 6 6 5 8 10 7 7 8 8 9 9 7
7 7 8 9 7 8 5 2 5 6 3 4 6 6 4 3 1 2 3 4 4 4 5 4 2 9 8 9 12 2 4 5 3 10 17 16 6 2 4 3 3 4 2 1 3 2 1 4 5 5 4 6 5 2 2 2 4 4 3 3 6 8 12 15 10 4 2 3 3 4 3 3 1 4 3 4 6 5 5 8 7 7 8 8 9 8 8 8
8 8 8 9 8 8 4 1 2 3 1 1 3 4 2 3 2 1 3 5 4 2 4 5 3 8 8 9 11 3 3 7 6 12 18 18 9 2 5 5 2 3 1 2 3 1 2 5 7 6 5 6 5 4 3 3 3 5 4 3 8 11 14 15 7 1 3 3 3 3 1 3 3 1 4 5 6 5 6 7 6 7 8 8 8 9 9 10
10 10 9 9 9 7 3 1 1 1 2 2 3 3 2 4 4 2 5 4 3 1 1 3 3 6 6 9 12 7 1 6 4 10 16 18 13 3 5 5 0 3 3 5 2 4 1 3 4 4 5 5 3 5 5 2 1 7 6 3 6 9 13 12 5 3 4 1 3 5 3 2 4 1 3 3 4 5 5 6 5 7 8 8 9 9 9 10
11 10 9 8 7 6 2 0 1 2 2 2 3 3 4 5 3 3 6 3 2 2 1 2 4 6 7 8 9 5 3 4 3 7 13 15 15 7 4 2 2 2 3 5 4 3 1 1 2 3 4 1 4 7 4 3 2 7 5 4 6 7 9 8 3 3 2 1 3 4 3 2 5 1 4 2 3 3 3 4 4 5 6 7 8 8 9 9
13 11 9 6 4 3 1 1 1 3 4 3 3 4 5 4 4 6 5 1 1 2 1 3 3 4 8 8 7 6 5 4 2 5 7 6 12 11 3 1 4 4 4 5 3 2 3 2 2 3 1 3 4 6 3 4 5 5 4 7 8 5 4 3 1 1 2 1 5 3 3 2 4 2 3 1 3 4 3 4 4 5 6 7 7 7 8 9
15 13 11 7 2 1 2 1 2 5 4 4 5 4 4 2 5 7 2 1 1 3 3 4 3 4 8 6 5 7 5 5 5 6 6 4 9 11 6 4 5 4 5 6 5 6 5 3 1 2 2 1 2 4 2 2 4 4 4 6 8 5 3 3 3 3 2 4 5 2 2 4 3 3 2 4 5 6 5 4 6 7 7 7 7 7 8 8
15 15 15 13 8 4 2 3 5 5 4 5 5 4 4 3 5 3 1 3 2 3 2 2 4 5 6 4 5 6 4 5 5 5 3 3 5 6 5 4 2 4 5 4 5 7 3 1 3 5 2 1 3 4 4 5 5 5 4 5 8 6 5 5 4 4 3 5 4 2 7 5 4 3 3 7 6 5 6 4 5 6 7 8 8 9 8 9
14 15 16 16 12 8 6 5 5 5 4 6 4 5 6 5 3 1 3 3 1 2 1 1 4 4 4 4 5 5 2 3 4 4 2 2 4 3 3 4 3 3 3 2 4 5 4 3 4 5 2 1 3 3 5 5 4 5 2 3 5 4 5 6 5 3 6 6 2 4 6 5 4 1 4 7 6 5 6 5 5 5 6 8 8 8 9 10
11 13 15 16 14 10 6 4 4 5 5 5 4 6 8 5 0 0 3 3 1 3 2 1 4 4 3 3 2 4 3 2 3 5 4 3 5 4 4 6 7 3 0 2 2 2 3 4 3 2 2 2 3 2 3 3 3 3 1 4 3 0 3 5 4 3 7 8 4 4 2 5 5 1 6 6 6 7 6 3 2 4 5 6 8 9 11 13
7 12 14 16 16 12 6 3 4 5 5 5 7 6 6 2 3 1 1 4 2 4 3 2 3 4 4 3 3 2 1 2 2 5 4 4 3 2 3 4 5 3 1 2 2 0 2 5 6 2 3 2 5 3 2 1 3 3 1 3 2 2 4 4 5 5 6 8 5 2 1 4 2 4 7 5 6 6 4 2 4 7 8 9 10 11 13 13
3 9 14 17 17 13 6 4 4 4 4 6 8 6 3 2 2 2 1 2 1 2 4 4 5 5 4 4 3 4 2 1 2 4 3 2 1 1 2 2 3 3 2 1 1 1 1 6 7 5 4 1 2 3 1 2 2 2 2 2 5 3 5 2 5 4 3 5 4 2 3 3 1 2 3 2 4 6 7 8 9 9 10 12 11 11 11 10
1 4 11 19 19 12 5 4 5 4 5 8 8 3 2 2 2 3 1 1 0 0 3 3 2 2 3 3 4 6 5 2 2 3 2 1 1 2 3 3 2 2 1 1 1 0 1 5 7 4 5 5 1 2 2 1 1 1 1 4 5 1 4 2 3 4 4 5 4 4 7 5 2 3 3 8 11 12 10 9 8 9 11 12 11 10 10 9
2 1 7 19 20 9 4 6 8 8 7 8 7 3 1 1 2 2 1 0 0 1 5 2 1 1 1 1 3 5 5 3 3 3 2 1 1 1 2 3 2 2 2 1 0 1 1 4 7 2 3 8 4 3 4 3 1 1 1 1 2 2 3 2 1 5 6 6 5 8 10 6 3 3 5 8 10 10 8 7 9 12 12 10 10 9 10 11
3 1 4 17 18 10 7 7 8 9 8 6 4 2 1 1 1 2 2 2 1 3 4 0 1 2 1 0 2 4 3 2 3 3 2 2 2 2 3 1 2 2 4 1 2 1 0 1 6 3 3 7 5 4 4 5 4 2 2 3 3 1 3 2 2 3 5 8 7 9 10 4 2 1 3 5 7 7 7 6 8 10 10 9 10 10 11 11
2 3 2 15 14 6 11 15 11 9 7 4 3 2 1 1 1 2 3 2 1 2 2 1 0 2 2 1 1 2 2 2 2 2 1 1 2 1 2 1 2 5 5 3 2 1 1 0 4 6 5 5 3 1 3 4 4 3 5 4 3 2 2 2 2 2 2 6 7 9 10 3 2 2 1 3 6 5 5 7 7 9 10 11 11 11 11 11
3 3 4 17 12 3 7 17 11 5 5 4 2 2 1 1 1 2 2 2 1 0 1 3 2 1 1 2 2 2 2 3 1 1 1 1 2 1 0 2 1 3 4 4 3 1 1 1 3 5 5 4 5 5 3 4 3 1 4 3 2 3 2 3 5 3 1 3 5 8 11 6 2 4 3 2 4 5 7 8 9 10 12 12 12 12 12 12
5 4 6 15 8 6 9 9 4 3 5 3 2 2 1 2 2 2 1 0 0 1 2 3 2 1 1 1 2 1 2 2 1 2 0 0 0 2 2 1 1 1 1 1 2 2 0 1 2 5 4 6 10 6 1 2 2 2 1 1 1 1 0 3 8 5 2 5 6 6 9 6 2 5 2 1 1 5 6 7 10 11 12 13 14 13 13 13
4 3 6 12 3 8 13 7 3 5 4 0 1 1 2 2 2 1 1 1 1 1 3 2 0 1 0 1 0 1 1 1 1 1 0 1 2 3 2 2 2 1 2 1 3 2 0 2 2 5 5 6 9 5 1 1 1 2 2 0 1 2 3 5 7 3 3 8 7 6 9 6 2 1 7 9 6 6 7 8 12 13 12 13 15 14 14 14
3 3 6 14 5 3 6 5 2 3 2 1 3 2 2 1 2 2 1 2 1 1 2 1 0 1 0 1 1 1 2 1 0 0 1 2 2 2 2 2 1 1 1 0 1 2 2 1 2 4 6 7 7 7 5 3 4 3 4 3 2 5 7 7 4 1 1 5 5 5 10 8 4 8 15 13 9 8 10 11 12 13 14 14 14 14 13 13
4 1 4 15 18 10 4 4 5 5 3 3 5 2 2 2 1 1 1 1 1 2 1 1 0 1 0 0 1 2 1 1 1 1 2 1 2 3 2 1 1 1 1 2 1 1 1 1 2 3 4 8 8 8 9 8 7 4 5 6 5 5 7 5 2 2 2 3 4 5 10 12 12 16 19 15 11 12 13 13 12 12 14 15 14 14 13 14
3 3 2 8 14 11 3 1 5 6 4 4 4 2 2 2 1 1 1 1 1 1 1 2 1 1 2 3 3 3 2 1 1 1 2 1 3 3 2 1 1 2 3 1 2 3 2 1 1 4 3 5 8 10 10 9 9 9 11 11 7 3 3 3 2 4 5 6 6 8 12 16 18 20 18 14 14 15 15 15 14 13 14 15 14 14 15 15
3 3 1 1 3 5 4 4 5 4 3 4 3 1 2 2 2 1 1 1 1 1 2 2 2 3 2 3 3 2 4 3 2 1 0 2 3 3 3 1 1 2 2 2 1 4 3 2 2 4 6 9 11 13 13 10 10 12 13 12 7 4 4 5 4 6 7 7 9 14 18 21 22 20 16 12 13 14 15 15 15 14 15 15 15 16 17 16
3 3 1 1 2 2 3 3 4 5 5 4 3 1 2 3 2 1 1 1 2 1 1 2 4 3 1 1 1 1 4 5 3 1 0 1 2 4 4 1 1 1 2 1 1 4 4 2 3 3 7 11 12 13 13 9 9 11 11 9 5 3 5 3 5 7 6 7 13 20 23 23 22 19 14 12 14 15 15 15 15 15 16 16 17 17 17 16
3 4 0 3 3 3 2 2 4 7 6 4 3 2 2 3 2 0 1 2 3 3 2 2 4 5 3 2 2 1 2 2 3 3 1 1 2 2 2 2 1 2 3 3 2 2 3 3 4 2 7 12 12 11 10 8 10 12 11 5 1 2 3 4 6 7 8 11 16 21 24 22 16 14 13 14 14 14 14 13 15 16 18 18 19 18 17 18
3 4 2 3 4 2 2 3 4 5 5 3 3 2 2 4 2 1 0 2 1 3 3 2 4 6 3 1 3 1 3 4 4 5 2 0 3 1 1 2 2 2 3 3 1 1 2 3 3 1 4 9 10 9 8 9 12 12 10 4 3 3 5 6 6 8 10 14 18 20 21 17 10 9 14 14 13 14 15 15 16 16 17 19 19 18 19 19
5 5 6 7 4 3 3 3 3 5 3 3 2 1 1 2 3 2 2 1 1 0 0 1 3 4 2 3 2 1 4 4 5 7 5 3 3 3 2 2 3 1 4 2 1 3 3 2 3 4 4 7 7 8 13 16 13 8 6 5 4 3 4 5 8 10 12 17 21 19 14 11 9 12 15 14 14 16 17 17 16 15 17 18 18 20 21 19
7 5 4 7 4 3 3 3 3 4 1 1 0 1 1 1 1 2 2 1 1 1 2 3 2 1 2 3 2 3 4 4 5 6 4 3 2 2 1 1 3 2 1 2 0 1 2 1 3 3 4 8 8 9 13 14 9 6 3 1 2 7 9 9 11 13 14 15 15 12 10 11 14 17 17 17 17 17 16 15 15 16 18 17 18 21 21 18
Wind_Direction
88 74 55 42 39 38 31 23 16 3 2 3 14 57 59 41 32 25 18 15 13 13 20 218 170 162 165 169 246 342 355 17 26 32 36 9 356 356 351 344 342 343 344 348 347 344 340 340 352 2 3 356 12 290 340 31 63 55 82 91 307 203 185 203 180 192 151 170 265 323 82 134 152 198 165 76 58 83 83 64 64 69 77 99 97 78 64 63
83 63 45 43 43 37 27 19 14 5 3 15 69 96 73 47 30 21 14 13 15 20 36 208 219 214 214 233 267 322 337 3 20 24 15 359 357 355 350 346 343 341 342 344 344 350 352 327 347 4 10 355 317 333 12 358 67 88 111 82 242 205 187 224 172 189 152 147 213 269 167 142 158 191 169 111 112 84 89 63 57 75 71 82 82 72 65 62
74 52 43 47 43 31 23 20 17 9 14 60 100 102 71 45 27 20 14 13 16 32 52 63 221 238 241 251 267 315 319 351 20 5 355 356 357 355 353 350 344 344 345 346 341 331 299 278 331 2 16 337 306 7 42 355 43 129 112 84 245 212 189 276 163 175 194 156 172 224 179 82 63 179 78 121 139 58 122 143 92 104 108 95 80 76 70 63
62 49 46 44 37 27 23 22 22 20 35 82 104 93 62 38 27 20 15 17 18 36 51 51 56 318 259 264 276 302 338 31 14 338 349 356 358 354 357 358 351 352 354 357 356 338 299 272 307 37 68 335 317 35 61 335 33 89 89 146 226 185 135 269 219 197 206 160 160 195 62 62 77 71 102 134 122 318 226 198 162 152 144 122 98 84 78 70
56 52 46 38 32 26 23 23 27 34 56 87 100 78 52 31 25 19 18 22 21 26 29 32 47 55 54 346 301 270 23 50 326 338 354 357 357 355 1 7 5 5 0 2 11 20 12 274 88 62 62 8 338 33 22 306 62 60 22 192 209 140 141 254 236 227 223 103 100 118 73 158 173 53 128 150 169 241 217 187 158 149 143 129 115 97 85 77
59 51 42 34 29 25 21 22 28 45 71 89 96 58 37 27 22 23 28 32 30 27 16 11 28 66 78 59 48 74 97 86 311 342 356 355 357 358 8 18 20 11 6 19 31 49 49 42 71 48 38 40 19 68 337 317 50 92 317 293 255 144 140 228 227 226 138 105 122 175 177 119 101 47 169 157 208 212 164 150 143 135 132 121 112 104 92 84
58 45 40 35 30 27 22 28 36 59 87 100 101 39 28 23 22 28 33 36 38 34 17 355 331 123 124 62 54 64 88 54 328 350 356 354 358 360 14 29 27 21 27 35 31 49 53 36 50 65 62 46 42 82 354 338 39 88 178 327 325 127 139 196 197 171 129 131 178 162 124 137 159 198 126 126 193 169 143 139 132 126 120 112 105 102 98 94
52 44 42 36 32 33 35 44 53 76 112 126 104 30 27 23 27 33 37 39 47 49 34 12 275 194 185 154 63 59 58 323 340 355 356 355 1 8 22 32 30 31 39 39 30 50 78 45 36 57 72 51 95 59 3 14 28 63 120 299 284 178 216 223 208 137 126 135 133 118 138 232 196 179 122 158 180 158 150 137 126 120 112 108 107 106 102 95
52 48 43 38 34 37 46 47 54 89 136 133 88 34 31 24 32 36 38 40 54 62 45 41 64 125 141 118 92 64 355 334 349 354 355 357 1 19 36 33 25 28 35 35 32 45 72 65 12 103 119 140 81 38 352 46 10 352 305 306 336 322 297 270 271 250 186 159 131 134 240 272 202 182 160 186 183 167 149 133 131 124 115 116 116 114 109 101
55 52 45 35 27 28 29 25 36 82 126 128 84 33 31 29 35 33 44 49 56 71 49 47 63 79 91 87 79 60 335 347 2 357 356 360 0 20 36 28 18 20 29 32 31 39 58 318 247 150 116 110 63 21 356 70 161 265 333 14 24 335 313 347 308 279 260 216 189 181 235 259 212 258 260 207 185 166 143 138 141 127 125 129 121 117 111 106
60 51 38 23 20 18 7 6 7 14 123 136 56 34 36 35 29 23 50 70 69 79 57 39 49 65 71 67 79 61 349 359 8 2 0 5 4 13 24 17 11 14 24 36 33 32 38 16 182 130 85 70 42 12 6 124 203 251 78 47 349 344 343 19 332 289 309 240 197 165 189 275 2 287 227 199 178 164 149 150 148 131 134 130 120 116 107 103
61 43 32 25 26 26 19 15 11 31 128 94 57 51 44 39 40 45 65 86 96 82 51 33 25 59 67 56 76 53 7 9 6 5 8 12 8 1 10 7 4 10 17 33 34 35 44 58 81 89 6 121 108 20 1 251 154 60 64 62 329 357 10 2 347 299 331 241 177 124 36 295 218 248 238 182 164 162 152 154 151 135 132 125 117 105 98 100
57 44 40 43 49 55 49 41 39 52 89 82 74 59 56 58 60 64 67 80 99 66 45 49 48 61 73 59 61 24 12 6 3 8 15 17 15 356 360 355 358 16 22 28 39 45 52 69 81 92 89 91 131 351 76 358 33 32 31 64 349 6 344 332 354 337 346 305 121 87 312 283 240 249 250 173 160 156 158 162 151 136 127 121 112 99 101 102
55 48 53 66 71 69 59 55 57 65 73 67 62 54 69 81 71 69 67 71 86 77 70 73 77 74 66 101 61 15 7 4 9 11 11 12 21 21 10 8 20 36 29 28 51 52 52 67 77 85 60 66 39 349 32 5 25 16 1 32 33 22 289 310 334 342 341 320 69 42 294 284 287 279 233 174 166 163 169 165 142 134 124 113 107 104 104 104
53 58 74 84 83 75 65 63 68 77 79 71 66 55 46 83 74 71 70 68 70 94 84 63 87 95 61 78 353 4 4 8 9 8 8 7 17 12 358 7 30 44 42 41 72 64 48 58 64 54 330 7 37 36 19 357 16 27 11 336 348 39 283 310 309 354 359 302 13 13 280 275 295 295 212 182 173 170 168 152 134 130 122 112 108 107 102 105
61 78 94 98 89 76 66 66 73 82 83 75 68 59 48 34 72 78 78 70 68 79 84 38 14 83 88 332 340 358 3 4 359 3 14 14 13 359 351 5 26 41 60 53 62 62 44 54 65 54 1 10 37 54 38 18 356 5 37 298 297 317 312 316 308 10 58 336 349 6 269 285 292 290 208 199 180 169 151 126 123 122 119 111 105 108 108 99
72 90 98 92 72 44 35 51 68 81 84 79 72 63 58 56 70 119 100 84 74 68 59 32 9 93 75 354 353 352 345 348 350 3 16 19 17 10 8 19 18 36 69 45 36 35 30 43 63 51 47 35 25 51 60 23 325 325 20 310 278 286 298 315 303 332 35 20 341 303 240 278 290 290 209 214 186 150 124 108 112 109 107 108 109 116 107 85
78 87 82 64 29 11 12 33 71 92 105 98 84 70 64 66 74 80 67 67 60 5 32 20 19 91 27 357 355 323 320 336 355 7 15 20 24 26 32 40 10 28 47 23 21 22 11 28 61 65 34 26 18 47 69 350 280 282 307 304 300 292 280 294 286 312 15 9 313 315 306 290 300 307 229 213 157 107 102 100 101 99 100 104 97 98 91 78
79 79 71 51 34 32 31 47 97 128 141 125 95 76 71 69 69 63 54 58 58 31 35 352 12 107 322 324 318 323 324 346 7 13 13 11 8 29 42 40 31 44 42 20 8 11 25 37 48 47 1 348 346 78 135 204 217 241 260 244 264 284 278 275 271 295 1 347 296 317 326 298 301 316 312 204 111 93 98 95 94 95 92 90 77 70 69 73
74 63 53 45 39 40 43 47 53 191 197 209 246 35 68 61 54 43 37 49 66 85 101 296 354 108 324 296 324 346 350 1 15 14 8 2 348 20 30 18 27 49 42 32 351 4 61 65 47 1 268 277 283 225 181 195 200 238 250 212 259 274 281 282 279 294 13 4 295 319 339 296 304 338 345 76 98 92 98 93 89 90 79 74 67 51 47 62
61 46 38 42 43 40 41 41 31 33 216 237 244 74 108 119 83 112 343 40 49 76 89 63 77 90 330 274 336 355 352 352 15 12 5 2 2 22 9 2 37 37 352 338 354 359 55 69 10 277 245 242 282 222 146 104 89 40 103 191 314 302 287 284 278 297 26 12 300 338 8 309 341 10 5 67 87 85 96 95 91 90 83 71 61 49 45 53
50 41 36 39 52 46 41 42 41 51 72 111 100 87 112 121 111 143 153 86 26 36 77 41 49 43 338 346 352 357 24 8 7 3 3 4 16 32 10 29 56 29 336 9 33 13 43 52 300 291 254 172 46 53 72 62 63 40 39 29 338 313 300 288 261 301 24 346 306 350 9 315 23 36 27 62 83 83 84 92 93 87 79 64 54 48 36 29
42 39 38 39 57 51 42 46 50 64 80 93 92 88 107 108 111 130 97 96 60 348 25 27 47 14 352 23 357 1 46 35 356 345 357 4 15 50 81 50 51 27 360 28 75 70 65 334 303 337 42 98 38 15 37 38 33 32 352 344 306 305 339 306 283 331 335 282 272 310 316 356 73 57 48 56 80 88 81 83 83 79 80 71 62 53 29 24
33 32 36 37 44 37 35 46 52 72 82 89 92 101 122 114 103 98 79 89 59 345 349 2 101 28 355 0 350 358 66 49 11 342 357 9 13 30 79 78 61 39 6 36 77 96 163 268 351 42 39 65 56 12 35 35 1 319 253 267 298 310 318 279 286 323 320 292 272 321 338 12 74 80 75 62 70 79 72 72 73 69 74 66 48 38 23 26
20 17 19 21 27 21 18 38 48 68 81 86 98 113 125 130 98 64 94 74 17 317 337 343 71 14 340 339 348 347 117 42 60 0 358 10 1 0 37 69 72 35 316 24 63 83 86 298 28 42 20 43 71 23 13 57 359 326 255 226 279 306 304 288 300 337 335 318 340 28 22 319 24 97 100 88 74 67 55 68 71 57 48 38 27 21 14 21
359 354 353 354 1 8 11 44 44 54 72 76 106 130 130 152 183 39 96 68 12 300 345 356 9 3 346 338 338 344 80 2 355 17 11 10 356 116 44 343 43 36 246 200 51 89 13 349 42 63 37 33 47 7 283 125 48 325 255 230 289 307 303 296 309 344 323 278 305 50 91 257 275 105 132 118 89 72 67 71 66 48 35 28 21 12 9 14
343 338 339 335 336 354 9 111 39 30 48 79 122 137 129 168 174 59 78 44 1 294 350 334 335 4 355 341 343 57 79 312 329 16 12 10 357 106 60 2 356 2 268 97 24 297 287 352 23 47 46 36 25 348 293 142 92 281 269 340 320 315 305 299 309 265 240 267 313 4 89 248 295 104 168 139 97 74 69 65 53 42 30 22 17 8 9 9
351 342 337 328 325 344 9 93 49 72 110 127 131 120 126 162 167 106 84 65 348 335 24 305 331 4 353 356 11 68 98 312 13 356 352 17 16 34 64 26 34 295 321 88 45 282 286 355 354 23 37 32 351 304 278 184 144 266 274 310 298 302 299 295 303 259 257 341 317 324 353 289 304 327 180 165 101 83 66 58 43 32 24 17 11 4 5 0
8 356 346 331 315 320 334 290 213 159 142 130 110 109 129 134 132 67 74 104 327 356 166 311 351 347 345 5 17 42 13 1 66 326 341 21 18 27 86 8 130 206 325 91 129 276 331 268 219 98 58 338 276 283 260 178 250 272 283 310 295 291 289 288 288 261 313 47 248 292 33 10 297 236 178 194 110 95 65 61 46 29 25 13 5 357 354 351
19 13 5 348 304 284 225 206 212 173 165 136 109 126 135 105 72 60 47 77 346 330 285 16 5 338 4 18 0 6 25 4 338 341 357 17 4 17 74 320 75 101 349 36 81 288 319 290 178 117 130 217 268 289 233 190 266 305 353 341 323 300 279 302 347 83 51 297 236 201 87 17 304 248 171 169 119 111 77 44 21 17 17 8 1 352 347 346
28 26 25 26 34 197 183 155 147 160 159 141 124 116 121 50 57 88 66 294 331 335 358 13 343 5 26 38 1 352 12 346 339 15 16 2 6 14 24 2 30 52 9 9 349 324 354 34 184 275 269 148 348 314 285 274 316 10 26 345 340 331 330 7 13 37 31 282 251 176 38 347 281 248 153 131 122 114 103 50 14 6 3 359 351 345 344 343
36 38 38 41 52 72 98 122 142 144 142 147 129 81 87 32 29 90 304 323 347 334 2 327 313 6 14 25 13 340 339 344 356 48 34 19 32 26 39 33 359 10 5 350 336 338 0 142 285 310 304 97 12 325 317 335 9 26 16 8 3 348 346 350 333 341 313 270 254 5 356 332 237 233 143 142 140 124 114 79 31 5 354 350 344 343 344 341
40 47 47 45 50 60 80 110 133 131 140 148 113 52 76 78 40 267 292 333 18 324 348 285 309 347 359 19 5 327 341 353 351 34 46 78 56 26 36 32 24 28 340 322 357 352 333 297 323 347 330 52 27 348 321 324 356 3 0 50 26 353 336 315 299 308 289 269 254 27 356 306 264 268 141 148 145 119 92 66 37 7 351 345 339 338 340 341
43 47 47 43 42 46 63 94 121 135 140 127 85 48 64 78 178 258 314 283 279 336 3 344 320 342 27 46 340 321 11 345 351 36 15 31 42 2 350 1 12 41 280 344 14 12 358 316 312 10 309 329 350 259 241 283 303 302 204 118 78 3 282 282 252 249 288 290 312 21 9 258 269 179 138 127 115 100 79 70 25 356 349 342 336 340 347 351
48 41 37 31 28 29 40 80 119 146 139 91 67 60 75 105 233 172 295 265 290 333 320 331 7 24 12 339 322 354 37 303 6 58 27 30 61 350 337 334 347 18 60 12 322 289 27 270 260 288 252 304 341 272 180 25 301 275 155 91 29 233 205 240 236 230 274 292 294 330 217 236 239 147 142 125 116 108 84 31 359 359 356 350 347 352 354 351
54 39 33 22 17 19 34 83 123 144 129 88 66 59 111 189 219 161 207 280 344 311 321 355 32 39 343 312 335 355 355 297 6 52 35 46 110 344 340 282 319 18 66 74 310 343 18 272 283 324 301 312 357 282 225 77 295 325 49 313 286 222 157 215 280 270 294 288 268 257 274 288 350 169 175 57 28 21 14 4 359 356 354 351 351 352 347 339
24 48 31 17 11 14 37 100 134 128 97 81 78 92 181 204 179 174 208 357 332 274 42 32 13 16 333 311 320 330 345 349 359 35 31 8 41 2 349 299 305 35 58 178 234 209 213 282 295 316 298 293 265 257 293 100 132 55 11 280 291 356 107 108 287 301 306 277 259 274 285 292 291 263 326 10 358 351 353 349 340 344 355 352 344 337 327 325
338 154 33 14 10 18 57 100 114 107 85 68 77 122 162 139 182 201 193 103 232 50 68 81 295 20 11 297 298 313 347 4 351 17 32 336 348 71 48 314 287 54 4 311 176 225 183 297 298 266 274 297 325 27 334 321 34 115 200 310 16 336 316 358 307 294 295 284 282 288 286 272 225 268 347 359 339 330 328 326 335 346 352 341 327 320 316 320
0 105 26 5 11 40 72 99 98 74 72 74 85 138 150 133 227 228 171 145 129 79 73 154 271 11 24 143 290 305 342 12 338 2 52 5 343 85 95 327 284 344 349 42 148 266 7 298 289 294 322 315 341 22 327 309 327 0 16 18 44 214 259 281 284 277 286 289 292 296 293 281 179 253 351 335 313 305 311 329 343 343 337 323 319 318 316 317
24 95 9 353 2 46 69 74 68 46 63 102 147 144 99 157 258 264 196 189 184 104 87 202 186 7 337 356 350 306 341 11 339 355 49 16 336 18 78 78 292 315 330 23 88 311 356 169 261 296 339 346 340 300 275 295 305 342 357 344 335 319 277 278 266 227 280 292 295 299 297 287 136 125 38 304 288 288 318 340 340 330 324 319 317 314 311 309
58 96 336 347 344 259 59 59 54 43 77 87 110 108 69 145 159 317 243 209 228 206 142 144 125 58 351 351 337 295 333 349 1 40 25 7 17 338 245 150 206 311 341 17 27 1 358 188 248 298 331 327 279 242 233 269 258 303 332 311 279 280 294 309 291 269 242 272 281 293 294 296 134 134 137 206 265 319 341 340 330 322 319 317 314 309 304 304
64 93 329 352 24 111 74 57 21 43 93 70 74 109 62 108 113 349 319 143 226 324 50 96 97 72 139 272 297 298 343 329 351 46 20 297 332 232 228 130 151 272 75 6 302 266 165 123 247 280 278 265 273 271 179 247 226 189 268 178 147 265 352 305 288 295 306 278 281 281 284 297 154 158 145 120 341 344 338 327 324 320 317 317 314 307 303 303
79 122 356 6 73 106 71 64 329 26 70 4 33 70 28 89 112 358 9 31 6 8 31 43 58 47 105 235 354 351 320 271 225 65 189 256 256 227 231 7 12 115 100 7 301 275 12 60 319 290 281 269 282 296 92 110 10 1 299 34 56 298 287 266 266 306 309 281 293 291 281 291 174 210 342 353 353 339 327 325 325 320 319 318 312 307 305 304
111 156 16 20 32 150 81 100 147 64 87 88 63 33 357 77 93 42 14 357 6 78 62 23 297 45 274 183 117 263 301 1 308 54 122 179 239 265 284 334 1 81 98 167 289 304 289 342 11 340 329 326 326 333 332 330 352 331 292 313 339 304 299 284 273 26 271 269 314 309 286 294 311 328 336 339 341 336 325 324 324 320 321 318 311 308 304 303
71 97 336 18 37 63 100 147 139 130 146 101 76 33 10 46 52 78 124 17 27 144 115 354 313 110 305 17 43 321 348 45 297 341 53 175 260 315 319 266 143 142 233 206 159 57 261 228 87 74 344 324 323 322 320 322 328 315 296 312 328 317 304 292 291 320 287 304 339 296 279 296 316 324 328 333 342 336 322 320 320 318 319 316 312 310 307 307
73 57 324 359 28 50 72 88 95 112 145 121 80 19 57 67 325 272 129 72 33 122 81 359 326 68 30 34 29 339 335 10 310 29 43 271 267 291 285 228 176 200 217 200 105 86 91 267 173 151 198 270 276 281 295 310 310 303 306 314 322 321 316 335 329 289 298 314 304 278 288 304 314 321 328 339 342 329 320 322 323 322 321 316 311 309 308 311
95 83 77 5 10 33 33 17 48 85 136 130 103 42 85 62 327 333 89 100 45 63 68 34 32 47 24 29 36 314 302 332 349 88 130 250 259 287 287 246 245 225 183 154 114 94 72 324 262 191 226 255 266 279 291 299 291 290 303 312 308 319 359 5 321 296 316 325 302 304 314 313 312 321 334 340 334 323 320 323 324 323 319 314 311 308 310 316
74 131 171 118 99 85 49 34 70 78 64 80 101 99 81 49 27 42 331 338 15 27 75 40 17 20 331 311 76 289 310 340 339 285 277 277 291 330 329 298 314 348 110 68 23 106 105 276 246 217 265 269 270 280 286 288 281 286 301 299 283 336 12 346 292 297 315 307 297 308 315 310 310 324 338 336 327 322 320 320 320 318 317 315 313 312 317 325
81 114 347 25 92 144 128 70 91 79 55 56 76 67 96 98 83 169 284 0 7 350 41 51 333 328 300 248 146 130 305 340 320 287 254 277 299 347 342 301 316 33 78 49 357 112 128 267 255 244 284 285 283 281 277 284 294 301 307 295 166 54 338 278 277 289 286 282 290 303 307 305 311 327 329 325 323 319 315 315 317 318 319 317 314 318 327 330
141 145 147 66 72 86 57 41 72 79 45 38 70 59 116 132 142 187 27 46 23 330 17 63 299 303 293 177 117 112 239 206 234 256 206 95 315 260 204 240 251 344 32 60 333 21 57 302 287 11 309 292 289 291 298 309 307 305 310 326 78 40 329 303 301 301 295 295 300 305 305 304 314 324 318 319 321 317 314 317 319 320 318 315 318 326 330 328
109 127 137 112 70 11 27 31 62 86 40 7 85 149 119 135 168 153 75 27 133 206 330 172 277 297 345 64 82 278 259 205 213 235 203 186 242 219 227 232 188 299 349 34 330 0 34 319 326 34 346 294 293 321 325 319 314 313 327 350 23 4 329 308 303 308 312 310 311 313 310 309 320 322 317 319 321 318 317 320 320 318 316 317 324 330 330 328
101 89 104 104 78 7 27 31 37 77 70 311 161 169 123 121 172 125 86 5 65 111 214 213 230 290 10 7 321 268 248 208 216 235 206 181 185 161 225 229 150 164 219 129 343 346 86 350 325 17 329 300 314 332 319 313 324 341 342 10 0 337 324 310 308 316 317 314 314 317 315 316 322 323 321 323 323 320 319 320 319 317 317 322 328 330 329 327
Height
815 815 814 814 814 814 814 813 813 812 812 812 812 812 812 812 811 811 810 809 809 808 808 808 807 807 807 806 806 805 805 804 803 802 803 806 807 805 804 802 800 799 797 796 794 793 792 791 791 791 790 790 792 793 791 792 793 796 805 813 815 818 817 813 814 815 813 814 813 813 815 816 821 822 821 822 824 826 827 828 829 829 830 831 833 833 833 832
815 815 815 815 815 815 814 814 813 813 812 812 812 812 812 812 812 811 810 810 809 808 808 807 807 807 806 806 806 805 805 805 804 804 805 807 806 805 804 802 800 799 797 795 794 794 794 793 793 793 793 793 794 793 793 794 794 799 809 814 815 816 815 812 812 812 812 813 814 814 815 814 815 819 819 820 828 829 827 831 832 832 833 833 833 834 833 832
815 815 815 815 815 815 814 814 813 813 813 812 812 812 812 812 812 811 811 810 809 808 808 807 807 806 806 806 805 806 805 805 806 806 807 806 805 804 803 802 800 798 796 795 794 794 794 794 794 795 795 795 795 795 795 796 797 802 808 812 814 814 813 813 812 810 810 812 812 812 814 815 816 819 818 820 829 830 828 831 833 834 835 834 834 834 833 833
816 816 816 816 815 815 814 814 814 813 813 812 813 813 813 813 812 812 811 810 809 809 808 808 807 806 806 806 806 806 805 807 810 810 808 806 805 804 803 802 800 797 796 795 793 793 793 793 795 796 796 797 797 797 798 798 799 803 807 811 812 812 812 812 811 809 810 812 810 812 815 816 819 820 819 821 824 825 828 829 829 831 833 834 834 834 835 834
817 817 817 816 816 815 815 814 814 814 813 813 813 813 813 813 813 812 811 811 810 809 808 808 807 807 807 806 806 805 806 813 815 810 809 807 805 804 803 802 800 798 796 794 793 792 792 793 794 796 798 799 799 799 801 802 800 805 810 811 810 811 811 811 812 810 811 813 812 814 815 816 818 819 821 821 817 819 824 827 827 830 831 833 834 835 835 835
817 817 817 816 816 815 815 814 814 814 814 814 813 813 813 813 813 812 812 811 810 809 808 808 808 807 807 806 806 804 809 819 817 810 809 808 806 805 804 802 800 798 796 794 793 792 793 794 795 798 800 801 803 804 805 804 802 807 813 811 810 810 808 810 811 811 812 812 812 813 813 816 817 818 823 822 818 821 824 826 828 830 831 832 834 835 836 837
817 817 817 816 816 815 815 815 814 814 814 814 814 814 813 813 813 812 812 811 811 810 809 808 807 808 807 807 807 806 811 818 815 811 810 808 807 806 804 803 801 799 796 794 793 794 795 796 797 801 802 804 807 806 807 806 802 806 811 811 810 809 807 809 809 810 810 809 810 812 812 814 813 815 822 822 822 824 825 826 828 829 831 832 834 836 837 838
817 817 817 817 816 816 815 815 815 814 814 814 814 814 813 813 813 813 812 812 812 811 810 807 806 807 807 807 808 810 815 817 814 812 811 809 808 806 805 803 802 800 797 796 796 796 797 799 801 803 805 807 808 807 809 807 805 808 811 810 810 808 807 808 808 808 809 809 811 812 811 812 814 816 818 821 823 824 825 826 827 829 831 832 834 836 837 839
818 818 817 817 816 816 815 815 815 814 814 814 814 814 814 814 813 813 813 812 812 811 810 808 807 807 807 808 808 814 819 818 815 813 812 810 809 807 805 804 803 801 799 799 798 796 798 802 803 802 804 808 808 808 809 808 811 813 812 811 809 809 808 809 808 807 808 810 812 811 810 814 818 817 815 820 823 822 824 825 827 829 831 833 835 836 838 839
818 818 817 817 816 816 815 815 815 814 814 814 814 814 814 814 814 813 813 813 812 812 811 810 809 808 808 808 810 819 822 817 816 814 812 810 809 808 806 805 804 802 801 800 799 798 800 801 802 801 802 807 808 810 812 811 813 814 812 811 810 811 810 810 809 807 808 810 810 809 810 814 819 817 813 818 822 821 824 826 827 829 831 834 835 837 838 838
818 818 817 817 816 816 815 815 815 814 814 814 814 814 814 814 814 814 813 813 813 812 812 812 812 810 810 810 814 822 821 817 817 814 812 810 809 808 806 806 805 803 803 802 801 801 801 800 800 801 803 807 809 812 813 812 813 812 810 809 810 811 810 810 810 808 809 808 808 809 812 818 822 817 809 813 820 821 823 826 829 830 832 835 836 837 838 838
818 818 817 817 816 816 815 815 815 814 814 814 815 815 815 815 814 814 813 813 813 813 813 812 812 812 812 812 817 822 820 818 817 814 812 810 809 809 807 807 805 805 804 803 804 802 801 800 798 801 806 808 810 813 811 811 813 810 811 811 811 812 810 810 812 810 809 808 807 810 813 816 819 813 807 812 818 821 824 826 830 832 834 836 837 838 840 840
819 818 818 817 817 816 816 816 815 815 815 815 815 815 815 815 814 814 814 813 813 813 813 813 813 812 813 816 820 821 819 819 817 814 812 810 809 809 808 808 806 806 805 805 806 804 802 801 799 803 808 808 811 813 810 811 811 811 816 817 816 817 811 809 813 812 810 808 807 811 813 809 808 807 808 815 817 820 824 827 830 833 835 837 838 840 841 842
819 818 818 817 817 817 817 816 816 816 816 816 816 815 815 815 815 815 814 814 814 813 814 814 814 813 815 819 820 820 820 819 817 814 811 810 809 808 808 808 806 807 806 806 806 805 805 802 800 804 809 812 814 812 812 816 816 818 821 824 831 828 814 810 816 815 811 809 807 812 816 808 802 805 811 816 815 818 822 825 831 834 837 839 840 841 842 843
819 818 818 818 818 818 818 818 817 817 816 816 816 816 816 815 815 815 815 815 814 815 815 814 814 814 817 820 820 820 819 817 815 814 813 811 810 809 808 807 807 807 807 806 806 807 806 802 803 810 815 815 816 817 818 820 825 830 825 825 838 835 822 818 816 816 815 812 809 812 815 809 803 806 812 815 815 817 820 825 832 835 838 840 841 842 843 843
819 819 819 819 819 819 819 819 818 818 817 817 816 816 816 815 816 815 816 815 815 815 815 815 815 814 820 824 821 820 819 817 816 816 814 812 811 810 808 807 807 807 807 807 806 807 806 805 811 821 822 819 826 829 822 823 831 839 838 833 835 833 832 825 812 815 820 815 813 814 816 811 806 809 813 815 815 817 821 827 833 836 839 841 842 843 843 844
820 820 820 820 820 820 820 819 819 819 818 818 817 817 817 815 815 816 817 816 816 816 815 817 816 814 821 825 823 823 822 821 819 816 814 812 812 810 808 807 807 807 807 806 806 807 807 812 819 824 828 831 838 834 824 833 840 841 845 842 839 838 839 832 817 815 819 817 817 817 818 813 806 808 812 813 815 818 823 829 834 838 840 842 843 843 844 845
821 821 821 821 821 820 820 819 819 819 818 818 818 818 818 817 817 817 818 817 816 815 815 818 816 820 828 828 829 830 826 824 821 817 814 812 812 811 809 808 808 808 808 809 810 813 814 819 823 826 831 836 841 837 832 843 846 842 846 844 842 842 839 835 824 816 818 820 819 817 818 814 806 806 810 813 817 821 826 832 836 839 842 843 844 845 845 847
822 822 822 822 821 820 820 819 819 819 819 818 818 819 818 819 818 818 820 818 820 823 828 830 827 834 839 834 832 830 826 824 821 817 815 813 812 811 810 811 811 810 812 817 818 821 823 825 828 831 837 840 844 846 841 843 844 844 849 848 844 843 839 833 825 820 822 821 816 816 821 816 809 807 810 814 818 824 830 835 839 841 844 845 846 847 847 848
823 823 822 822 821 821 820 820 819 819 818 818 819 819 820 822 823 827 828 826 829 835 838 839 837 838 839 835 832 828 826 824 821 819 817 815 813 811 813 814 815 816 821 826 825 826 828 832 840 843 845 845 845 848 845 844 847 845 847 847 843 842 839 832 824 821 824 822 814 818 824 817 813 817 818 817 820 827 833 837 841 843 846 848 848 849 848 849
823 823 823 822 822 821 820 820 819 818 818 818 818 820 824 825 827 833 835 835 837 838 837 838 837 837 836 835 833 830 828 826 822 822 820 817 814 814 820 822 820 823 831 833 831 830 830 836 845 845 845 846 846 849 847 845 847 846 843 841 837 837 834 827 824 821 825 827 818 819 822 815 821 831 827 823 826 832 836 839 843 845 847 849 850 850 850 850
823 823 823 822 822 822 821 821 820 819 819 819 819 822 826 827 827 830 832 837 840 838 838 838 836 837 836 835 834 832 831 829 825 824 823 821 818 821 828 830 829 831 835 835 833 834 836 841 845 845 848 849 848 849 847 844 845 845 844 840 837 837 832 824 821 822 828 829 819 819 824 822 832 840 834 832 834 838 840 840 844 846 848 851 850 851 850 849
824 823 823 822 822 822 822 822 821 821 820 820 821 824 827 828 829 829 829 835 840 839 838 837 837 838 836 835 835 833 832 834 835 832 828 826 825 829 831 834 836 838 839 835 831 835 841 844 845 847 848 845 844 846 846 843 842 845 845 841 839 841 841 832 822 823 829 828 822 822 823 826 838 841 839 841 839 842 844 843 846 848 850 852 851 851 850 849
824 823 823 823 823 823 823 822 822 822 822 823 823 825 827 828 829 829 831 837 840 839 838 838 838 838 838 837 836 835 835 838 840 837 833 832 832 834 835 837 839 841 846 844 837 839 843 846 848 849 846 844 844 846 849 845 841 846 845 841 841 840 843 840 831 830 828 824 822 822 817 821 838 843 843 846 843 843 846 846 849 850 851 852 850 850 849 849
824 824 824 823 823 823 823 823 823 823 824 825 825 827 828 828 829 829 831 839 843 840 838 838 839 839 838 838 837 837 837 838 841 840 837 836 835 836 837 841 841 842 850 850 845 844 847 851 850 846 846 849 847 847 852 849 844 845 842 840 843 840 840 839 836 837 832 822 820 821 820 823 835 844 846 847 846 845 847 848 850 852 851 851 850 849 849 849
825 824 824 823 823 823 822 824 824 825 825 825 826 828 828 828 829 828 832 842 848 845 842 839 840 841 839 839 839 837 839 840 841 842 839 838 838 837 839 844 845 845 849 850 848 846 848 852 852 848 848 848 847 847 850 851 849 845 840 840 843 842 841 837 837 841 836 827 823 823 828 829 829 837 846 848 848 848 850 851 852 853 852 851 852 851 850 850
825 824 824 823 823 823 823 824 825 825 825 826 827 828 828 829 829 828 834 848 854 850 846 842 842 843 842 844 841 839 847 847 841 842 842 840 840 837 841 848 847 846 851 850 847 848 849 849 850 850 847 845 845 846 847 852 852 841 837 841 841 839 838 835 838 843 837 831 828 826 828 829 825 832 847 849 847 850 851 853 854 854 854 853 854 853 852 852
824 824 823 823 823 822 823 824 824 825 825 826 827 827 828 828 828 830 837 855 859 850 849 848 844 844 846 847 845 845 853 852 846 847 845 842 842 839 844 852 850 850 854 851 846 851 852 848 849 849 847 847 847 848 849 853 849 838 837 843 842 840 836 835 839 841 838 833 831 829 828 830 828 834 848 847 844 851 853 855 856 855 856 856 855 855 853 854
825 824 823 822 822 822 823 823 824 824 825 826 826 827 828 827 829 833 841 856 859 851 852 850 845 849 852 850 850 853 854 853 855 853 847 846 845 844 848 853 852 851 855 852 847 853 854 851 854 851 849 850 848 847 850 850 846 840 841 842 840 839 834 835 839 836 836 833 829 832 832 837 838 836 844 845 843 852 854 855 858 857 858 858 857 857 854 853
825 823 822 822 821 821 822 823 823 825 825 826 826 827 827 828 832 840 850 859 859 856 856 853 853 860 860 853 853 858 858 857 860 856 852 854 851 850 852 854 854 851 852 852 847 853 857 855 857 854 851 852 850 849 849 851 850 842 841 841 835 835 833 834 838 835 836 830 826 834 834 839 845 837 836 844 847 853 856 858 859 858 859 858 857 857 855 854
825 823 822 821 821 821 822 822 824 824 825 826 827 826 828 833 840 849 860 863 860 861 860 859 864 866 865 864 863 863 862 860 863 860 859 863 862 861 858 858 861 853 848 854 852 853 856 853 853 853 853 854 851 850 848 851 852 842 843 845 838 837 835 832 833 836 838 830 825 833 832 835 843 836 836 849 854 855 857 860 860 858 858 858 857 855 854 853
825 824 823 821 821 821 822 823 824 825 826 826 826 828 830 837 849 862 867 863 861 867 868 869 871 869 870 872 870 870 868 865 867 869 870 873 876 879 877 879 880 861 852 864 865 856 851 851 854 853 853 855 852 850 848 846 846 843 845 849 851 856 854 845 842 843 840 831 826 831 832 834 835 831 836 849 854 854 856 858 859 858 858 856 855 854 852 851
827 825 824 823 823 823 823 824 824 825 826 826 827 831 833 841 859 875 874 866 868 875 876 876 875 874 874 869 869 874 872 869 869 872 876 877 878 883 885 889 889 873 864 871 874 865 854 851 854 851 849 853 853 852 851 847 846 848 848 850 859 870 874 870 863 856 846 834 827 830 836 838 832 831 838 845 850 853 853 855 856 856 857 855 854 852 851 848
828 826 826 825 824 824 824 824 825 825 826 826 828 831 836 850 870 881 876 873 878 879 879 881 877 873 872 869 873 876 871 869 872 873 874 874 877 881 884 886 887 885 881 876 878 878 867 855 851 850 851 854 853 852 853 851 849 852 851 851 857 866 875 877 867 857 848 838 836 838 839 835 829 834 841 842 846 851 851 854 856 855 855 854 852 850 847 844
828 827 827 826 825 825 825 825 825 825 825 826 831 838 848 864 877 879 877 881 884 880 880 883 877 868 869 872 876 878 873 870 874 876 877 881 886 889 890 891 891 893 887 878 879 882 875 861 852 854 858 856 852 852 854 852 850 854 855 854 857 859 864 867 860 855 855 854 853 846 835 826 826 836 842 842 845 849 852 853 852 852 852 850 849 846 844 843
829 828 827 826 827 825 825 825 825 825 827 825 832 852 869 877 880 880 883 886 887 886 882 877 875 870 871 873 873 876 876 873 874 876 880 889 893 893 895 895 896 897 891 884 884 885 879 865 854 856 857 853 853 853 854 854 850 852 856 854 855 857 859 863 861 857 861 864 856 842 833 829 831 838 841 841 844 845 849 851 850 851 851 849 847 845 845 844
828 828 828 828 827 826 825 826 824 825 827 827 840 867 884 887 887 889 891 890 891 893 883 872 875 877 877 875 872 874 876 874 874 874 879 888 890 892 897 896 897 900 899 895 889 890 890 873 859 861 855 849 857 855 852 856 854 852 855 854 853 856 859 867 870 862 862 866 851 835 835 837 837 839 840 842 846 848 850 852 851 850 849 849 847 846 845 843
829 829 829 829 828 827 826 825 826 825 827 840 861 881 888 889 892 895 895 894 893 891 881 875 878 879 880 879 876 879 879 874 875 877 880 885 886 893 899 897 897 900 904 901 891 892 897 878 861 864 861 854 857 855 850 854 856 855 856 856 859 865 866 871 875 869 867 867 852 836 834 837 837 841 846 849 852 853 853 853 851 849 848 849 847 845 843 840
829 829 831 833 830 829 828 826 828 826 828 850 873 883 886 889 893 896 896 896 894 887 880 882 885 881 882 884 881 884 884 880 881 881 881 885 888 894 901 901 898 899 902 902 895 894 897 885 868 864 866 861 854 854 854 854 856 856 855 857 862 867 867 870 871 869 868 867 857 845 836 834 840 846 851 855 855 855 855 853 851 849 849 848 845 842 839 835
829 830 833 835 831 831 830 825 829 834 843 864 880 883 886 889 891 895 897 895 892 887 882 886 888 884 883 886 887 888 887 884 885 884 884 891 892 892 903 908 902 900 902 900 897 896 895 892 878 864 866 866 858 857 859 857 859 860 858 862 866 865 865 870 869 864 867 867 860 855 842 833 842 849 851 854 854 853 853 851 851 849 847 845 842 839 835 832
829 832 835 834 831 832 829 829 845 861 867 877 883 884 888 888 888 892 897 897 893 888 887 888 889 887 885 887 888 890 889 886 888 888 889 894 892 890 901 909 907 905 902 894 895 899 896 896 891 880 876 870 859 857 859 861 863 862 862 864 868 870 871 878 874 861 864 864 859 861 851 835 838 846 849 853 852 849 849 849 849 847 844 842 838 835 832 829
830 836 838 834 831 830 830 845 871 879 876 879 883 885 888 888 888 890 892 895 893 889 889 889 889 890 890 889 890 892 891 887 888 890 892 895 896 895 901 908 909 908 903 896 899 904 901 901 900 891 880 869 860 860 865 867 862 861 864 865 870 874 874 881 881 868 866 863 855 860 855 838 836 841 843 847 848 847 848 849 847 844 841 838 834 831 828 825
834 839 838 835 833 831 835 856 878 881 881 887 888 889 890 888 888 888 890 891 890 888 888 888 890 891 890 891 892 890 889 888 888 890 894 898 899 900 904 907 907 907 905 900 900 904 903 902 897 884 873 865 857 859 864 864 861 862 866 867 871 874 873 876 877 875 874 866 858 863 855 837 834 835 834 839 845 847 847 846 845 841 838 835 832 828 824 821
839 840 839 836 832 830 837 855 870 879 886 887 886 887 890 890 889 888 889 890 890 890 887 888 892 891 892 894 893 890 889 887 886 891 897 899 899 902 905 906 906 905 904 900 901 903 897 894 893 886 882 875 864 863 864 861 863 868 868 869 871 873 874 873 873 880 881 868 865 873 859 834 828 832 834 838 844 847 846 845 843 840 836 833 829 825 821 818
839 841 842 840 835 836 849 861 866 874 882 882 882 886 887 888 892 892 891 891 894 895 890 890 893 893 894 895 891 892 892 886 885 892 898 898 900 902 903 905 906 904 904 904 906 905 899 897 897 894 897 899 890 882 874 867 869 871 869 872 875 877 881 877 875 881 878 871 877 882 863 837 831 835 837 839 844 846 845 842 841 839 836 831 827 822 818 815
838 843 848 848 846 850 863 872 869 869 876 876 878 887 887 885 891 895 894 892 894 896 892 892 894 893 893 892 889 890 892 891 892 894 895 896 898 902 903 904 905 905 905 906 907 907 905 903 899 893 895 899 894 884 877 876 880 876 873 875 878 882 885 880 880 880 877 879 881 872 859 848 841 840 840 841 845 845 841 839 837 836 833 829 825 821 816 812
842 851 857 855 855 858 865 872 872 870 874 875 877 885 888 886 889 891 892 892 895 896 894 894 896 893 892 893 892 891 892 895 896 895 897 901 901 903 904 903 904 904 905 908 910 908 903 898 897 897 893 889 887 884 881 884 885 879 876 877 877 882 884 882 884 882 882 889 879 857 855 856 846 842 845 846 847 844 840 838 835 833 830 826 822 818 814 811
846 856 864 859 858 863 865 870 875 875 876 879 883 887 888 887 888 888 890 893 894 894 892 892 895 897 898 898 895 893 893 893 893 896 900 904 903 902 901 901 903 904 905 907 909 909 905 900 899 901 895 890 890 887 885 886 884 878 877 878 879 884 887 887 889 886 886 892 878 858 858 858 847 844 848 849 847 843 840 837 834 831 827 823 819 815 812 811
851 856 865 864 863 870 875 877 878 876 877 881 884 887 887 886 888 894 898 894 891 894 894 888 892 898 901 901 897 895 897 894 891 896 902 903 904 903 900 898 901 905 905 904 907 912 908 899 898 902 899 892 888 886 884 884 880 877 877 879 882 889 891 891 891 888 886 884 874 863 861 856 850 849 850 848 846 843 839 836 833 829 825 821 816 812 811 810
847 848 857 862 867 875 880 881 877 872 877 884 882 886 891 889 889 897 902 896 889 892 895 891 894 900 901 900 897 895 900 899 895 899 904 904 905 904 902 898 899 903 903 902 907 911 906 900 903 908 902 892 883 880 880 881 882 883 881 881 887 892 892 892 891 886 882 876 868 864 862 856 852 851 850 847 845 841 837 834 831 828 823 819 814 812 811 808
842 844 848 852 865 878 879 880 880 873 877 885 884 887 891 890 892 896 900 903 899 895 897 897 898 901 902 900 897 898 903 905 902 903 905 905 904 903 902 901 901 901 900 903 908 908 906 907 907 907 904 891 880 878 880 880 879 880 881 885 891 893 892 892 888 882 878 873 866 865 865 859 852 849 847 845 844 841 836 832 829 825 821 818 815 813 810 806
842 846 846 847 864 882 883 881 882 877 880 890 891 891 891 892 898 897 893 901 906 902 903 904 901 900 898 895 897 902 906 907 906 906 906 906 905 905 904 904 905 902 899 904 909 909 911 911 905 907 903 886 878 884 886 883 877 876 883 892 892 889 887 885 881 876 875 872 869 869 867 859 851 848 846 843 841 839 836 832 829 823 819 816 815 812 808 805